Wind_Speed
16 4 8 14 12 15 6 4 8 9 6 4 9 6 6 6 7 2 10 14 20 16 0 26 25 38 36 34 29 28 19 20 22 18 20 20 19 19 16 13 13 13 9 8
6 10 15 15 13 4 6 7 9 9 5 5 7 4 8 4 4 11 9 18 29 30 19 16 19 36 37 34 30 26 23 22 23 22 19 16 14 18 19 16 15 13 12 10
9 13 13 8 7 3 5 8 9 5 2 3 7 6 8 6 10 11 15 7 31 40 26 34 30 30 37 34 32 28 28 25 21 22 17 15 14 14 17 18 18 16 15 14
9 12 7 5 6 7 6 9 7 8 5 4 4 3 7 8 14 12 21 18 25 39 30 18 23 10 35 35 32 30 29 26 22 20 21 22 19 16 16 16 21 18 17 14
12 7 8 8 5 8 9 8 6 6 8 4 1 5 4 4 12 14 27 33 14 31 33 35 29 20 30 29 28 32 30 28 24 21 23 22 20 16 11 14 15 19 18 13
10 16 5 5 6 9 8 7 9 6 2 3 8 5 5 3 6 7 26 35 17 34 41 26 22 18 19 12 22 21 26 26 27 23 21 23 18 16 18 17 19 20 16 16
10 10 10 6 4 9 6 5 5 5 4 11 5 6 7 7 5 5 16 38 24 10 30 31 24 29 28 12 16 31 30 31 33 25 22 21 17 17 19 21 20 14 18 19
2 8 8 7 7 8 7 6 4 4 3 4 3 6 5 7 18 17 26 38 19 19 30 37 35 30 4 16 19 33 22 26 23 23 23 19 17 18 17 22 15 8 16 13
2 5 7 8 7 8 11 4 6 4 6 3 4 7 7 10 13 5 11 31 32 24 21 28 36 24 19 17 20 28 25 31 24 22 21 18 16 19 19 22 19 14 16 19
2 4 7 5 5 6 3 6 6 5 3 5 3 5 4 2 10 14 22 29 47 17 21 30 32 26 12 12 26 27 16 20 22 21 17 18 17 17 15 18 20 18 14 17
3 4 10 7 3 4 8 5 6 2 3 4 4 5 5 11 6 19 32 47 19 16 16 19 22 24 13 24 27 34 28 24 23 19 14 16 18 17 15 16 14 17 16 14
4 2 5 7 9 7 2 7 6 3 8 3 1 2 11 15 18 28 31 32 2 15 14 13 9 20 20 22 25 21 21 24 20 15 16 14 16 16 14 16 18 18 17 18
6 3 5 10 5 7 4 7 6 5 2 5 2 4 11 9 4 17 27 15 11 9 13 14 12 14 15 25 22 16 14 18 16 13 16 14 16 15 14 14 18 18 19 17
2 2 2 5 8 5 8 14 14 5 2 4 2 9 7 11 9 14 20 12 13 19 16 10 12 10 5 9 12 14 14 21 13 14 14 17 18 15 13 13 13 14 18 18
3 1 5 8 8 9 11 11 12 9 8 4 7 8 15 14 11 17 13 9 18 19 15 14 11 10 7 4 6 11 11 14 17 18 19 18 18 18 16 17 16 16 16 21
4 3 7 7 10 12 13 14 16 14 8 6 13 7 5 7 6 4 10 16 18 17 15 13 11 6 9 7 7 8 10 11 10 15 19 19 19 20 21 18 20 19 17 18
3 1 3 5 7 10 8 8 9 5 8 8 8 5 6 5 20 24 21 22 20 16 12 11 13 10 6 3 3 5 12 11 11 9 12 19 21 20 21 21 22 22 23 19
5 2 3 3 6 5 8 8 9 10 12 11 13 8 11 17 21 15 16 16 14 11 9 11 9 11 8 10 8 7 2 11 12 14 13 13 18 23 22 22 23 24 25 25
7 3 1 1 2 7 9 7 6 6 11 12 10 8 14 21 23 17 14 14 11 7 7 5 9 11 5 7 8 8 6 5 8 13 15 18 18 19 20 22 22 22 24 25
5 5 4 1 2 3 5 6 14 9 4 14 16 13 15 10 3 1 6 6 4 5 6 6 7 10 6 11 12 9 7 6 2 7 13 17 20 22 22 21 23 24 22 22
2 1 5 4 5 3 6 15 12 2 1 14 18 18 17 5 6 4 2 3 3 6 5 7 7 10 10 9 10 8 7 9 13 13 12 13 17 20 22 23 26 26 23 21
3 0 2 2 1 1 6 4 5 2 11 7 10 9 8 8 7 2 4 6 7 8 9 11 15 16 16 15 15 13 11 12 15 16 15 16 17 17 22 26 26 29 24 25
3 2 3 5 4 7 17 12 8 2 8 13 13 8 4 5 8 13 17 17 16 14 12 14 15 16 16 17 18 21 21 21 20 18 18 19 16 16 20 23 26 27 25 30
3 14 3 6 6 9 15 17 16 11 8 8 10 14 12 12 13 14 16 14 11 12 14 15 15 16 17 20 24 26 28 28 27 25 22 19 21 19 21 22 22 27 25 31
1 4 1 3 9 9 13 12 12 12 11 7 9 13 11 15 16 11 16 19 21 22 23 24 26 26 24 21 22 25 27 30 31 30 30 26 22 20 20 21 21 19 14 14
4 3 2 1 4 5 6 10 11 12 11 12 11 11 11 16 18 19 21 21 21 24 26 25 23 23 24 24 25 26 28 29 32 33 30 29 24 18 18 17 19 15 11 11
Wind_Direction
229 194 229 242 243 255 10 341 303 281 262 110 78 39 327 299 48 30 156 25 111 86 225 210 206 192 191 190 194 201 203 194 207 205 208 215 215 210 206 186 203 216 201 182
270 224 237 250 266 50 3 297 272 292 121 103 98 9 300 282 60 344 289 94 152 160 213 213 202 187 189 190 196 202 206 192 201 212 224 221 224 217 212 211 203 215 207 198
223 252 239 236 295 271 249 243 264 269 346 313 110 344 322 316 340 298 270 285 183 182 193 209 194 192 193 193 197 204 200 208 220 213 216 222 222 220 216 208 207 202 214 221
243 267 269 232 246 282 270 264 314 353 11 267 65 270 302 342 319 318 305 172 213 206 168 265 245 193 185 190 198 205 206 212 219 217 221 232 230 227 227 212 213 211 206 209
261 269 231 276 234 261 244 289 329 298 291 320 244 90 303 30 323 313 315 293 238 222 178 184 210 235 184 181 191 197 201 210 218 219 231 236 235 233 221 206 213 207 204 208
271 286 292 251 247 245 262 290 287 269 232 1 229 133 295 160 201 313 352 315 280 215 200 189 184 191 179 175 202 200 210 217 221 223 234 239 232 230 223 217 207 200 206 214
273 261 252 208 301 314 292 296 304 313 86 245 207 42 232 285 355 23 355 327 330 122 181 185 173 165 160 204 226 232 213 216 220 223 225 227 231 237 233 221 204 222 209 211
211 332 265 175 179 226 277 214 177 300 67 204 173 186 268 289 28 51 328 303 342 90 177 185 173 174 171 210 233 207 208 229 215 224 221 219 224 231 229 227 228 220 207 223
128 291 315 168 190 174 269 318 259 338 294 112 102 358 303 332 346 44 235 272 321 107 138 174 174 183 145 177 179 169 196 218 208 215 222 219 220 227 229 227 234 244 221 222
298 342 291 300 149 269 271 273 354 2 2 1 154 157 211 291 29 17 350 313 305 100 144 171 182 180 148 187 192 181 183 222 217 210 220 228 230 225 226 223 222 224 219 212
328 29 293 326 58 358 330 17 333 142 153 241 154 272 256 100 105 46 6 294 275 109 110 158 195 186 194 171 188 202 199 199 207 206 210 213 232 228 229 222 224 219 218 223
8 256 317 294 241 231 157 144 248 133 287 290 162 26 150 167 156 146 208 257 359 95 105 129 111 188 186 180 174 179 192 197 210 216 216 213 224 222 219 227 217 212 217 226
337 348 3 341 18 354 325 298 276 247 347 304 31 194 201 214 200 172 211 276 326 107 115 109 108 143 176 180 187 199 205 202 211 210 210 219 233 231 231 228 218 216 218 232
24 359 194 228 256 307 341 330 325 329 0 285 197 131 184 205 207 206 225 297 352 96 88 91 128 139 149 218 225 216 215 212 212 206 214 232 237 231 231 228 224 227 227 223
112 275 297 302 326 322 299 285 286 298 289 303 253 168 165 194 208 199 239 339 55 56 62 59 88 124 173 217 241 236 225 221 235 215 222 221 232 243 232 230 234 232 237 225
4 313 13 334 328 326 325 317 307 289 291 17 86 51 223 150 104 106 22 85 69 50 42 35 40 74 111 206 222 232 234 236 229 234 227 219 229 234 237 229 231 232 240 236
311 317 51 284 304 330 318 288 281 51 49 80 66 134 108 64 36 324 73 66 64 60 42 19 14 8 31 85 97 238 260 268 263 257 238 226 228 233 238 236 233 239 242 239
256 219 158 254 340 323 248 15 19 61 54 45 112 139 145 138 140 102 84 82 70 62 39 31 17 351 28 16 357 315 309 251 260 260 257 247 236 238 244 240 239 237 240 240
218 131 21 109 252 281 307 26 35 68 42 35 58 71 128 127 99 56 79 78 72 62 32 13 11 38 45 19 3 339 6 264 241 256 260 256 250 244 245 245 247 243 242 244
104 95 117 281 249 272 9 42 20 356 53 25 50 62 55 97 75 310 36 50 45 47 18 360 338 349 3 19 12 7 10 354 276 260 261 260 261 256 253 249 246 245 246 246
143 172 197 249 234 229 340 356 338 349 168 57 62 48 51 64 122 151 116 180 209 280 292 315 329 332 334 331 344 354 351 316 320 305 286 274 256 263 266 253 251 244 241 242
115 358 262 328 356 307 19 42 73 21 67 57 74 53 31 13 8 2 310 252 244 266 273 284 298 297 300 308 311 317 319 315 314 320 317 292 276 272 265 260 252 245 237 235
32 300 171 131 181 69 90 112 119 83 43 30 21 358 327 332 329 321 321 319 321 307 298 295 288 287 294 300 301 303 307 305 302 303 312 310 306 287 279 278 274 259 242 244
73 29 54 40 16 26 58 62 57 49 41 15 350 333 335 341 331 314 303 307 322 323 317 315 309 304 296 293 294 297 300 304 306 298 292 303 304 299 299 292 291 285 266 246
293 30 10 290 41 25 40 38 20 1 348 327 312 327 322 313 307 332 327 321 317 313 310 306 302 298 295 295 290 291 293 296 300 301 300 289 291 301 315 299 302 309 312 270
16 4 61 149 61 126 26 2 352 339 333 328 311 307 317 318 314 314 311 305 301 298 296 291 290 290 291 293 293 294 295 296 293 294 297 297 286 279 291 290 295 311 309 265
Height
1504 1513 1520 1504 1496 1492 1493 1498 1504 1491 1482 1487 1499 1503 1498 1495 1492 1489 1495 1498 1507 1505 1510 1512 1512 1515 1517 1522 1528 1532 1534 1536 1542 1544 1546 1549 1551 1553 1555 1557 1557 1558 1560 1563
1506 1514 1495 1489 1485 1488 1493 1502 1503 1489 1481 1488 1502 1504 1496 1489 1494 1491 1483 1487 1498 1501 1509 1515 1516 1514 1516 1517 1523 1528 1533 1535 1538 1542 1545 1547 1549 1551 1553 1555 1556 1558 1559 1560
1507 1495 1487 1486 1488 1491 1494 1502 1500 1496 1482 1480 1499 1510 1499 1484 1485 1488 1486 1487 1495 1491 1499 1506 1507 1507 1510 1513 1518 1523 1527 1531 1535 1539 1543 1545 1547 1549 1551 1553 1554 1556 1559 1560
1495 1482 1483 1486 1491 1490 1507 1484 1485 1487 1498 1521 1487 1539 1509 1501 1492 1484 1481 1491 1487 1490 1498 1512 1513 1513 1511 1510 1516 1519 1526 1530 1532 1536 1538 1540 1543 1544 1546 1550 1552 1554 1556 1559
1496 1487 1486 1490 1487 1483 1495 1480 1484 1487 1499 1502 1500 1521 1515 1508 1509 1497 1491 1485 1493 1487 1492 1487 1487 1508 1510 1510 1517 1522 1526 1529 1531 1531 1534 1537 1540 1543 1544 1547 1549 1550 1554 1557
1484 1478 1479 1480 1477 1478 1477 1483 1485 1487 1498 1531 1497 1501 1529 1508 1502 1502 1492 1487 1480 1477 1489 1497 1502 1505 1492 1509 1513 1519 1523 1528 1529 1528 1529 1532 1536 1538 1540 1542 1543 1545 1548 1553
1487 1482 1473 1474 1482 1478 1479 1494 1531 1532 1527 1526 1498 1521 1519 1497 1490 1497 1496 1487 1482 1481 1489 1491 1496 1501 1503 1511 1519 1520 1522 1520 1523 1523 1526 1528 1531 1534 1535 1539 1542 1543 1544 1548
1504 1510 1474 1469 1479 1488 1487 1491 1526 1534 1533 1525 1492 1521 1517 1501 1507 1494 1501 1487 1487 1484 1486 1489 1497 1498 1496 1495 1505 1514 1517 1518 1516 1523 1524 1525 1527 1531 1532 1536 1539 1541 1542 1547
1500 1495 1465 1464 1467 1474 1485 1498 1477 1499 1492 1512 1525 1527 1511 1504 1516 1526 1519 1495 1498 1489 1488 1492 1494 1496 1490 1490 1497 1507 1512 1511 1519 1517 1521 1523 1525 1529 1530 1533 1535 1538 1543 1546
1478 1503 1470 1465 1465 1467 1475 1472 1504 1508 1530 1533 1528 1520 1524 1503 1521 1522 1520 1511 1504 1489 1490 1492 1494 1491 1493 1494 1498 1504 1513 1509 1513 1514 1517 1522 1525 1529 1529 1530 1533 1536 1541 1543
1473 1488 1490 1471 1480 1482 1483 1496 1491 1490 1503 1522 1539 1532 1502 1508 1508 1504 1517 1500 1493 1487 1490 1489 1492 1493 1493 1499 1499 1503 1506 1508 1512 1513 1514 1520 1523 1527 1527 1527 1530 1533 1537 1539
1480 1486 1505 1489 1468 1466 1474 1485 1487 1518 1515 1498 1502 1528 1499 1495 1491 1489 1492 1491 1490 1485 1488 1488 1491 1492 1494 1495 1499 1503 1507 1507 1510 1514 1514 1518 1522 1524 1524 1525 1528 1531 1533 1536
1484 1498 1520 1509 1485 1477 1481 1477 1477 1480 1484 1502 1508 1516 1495 1493 1492 1486 1484 1491 1486 1485 1488 1488 1488 1493 1492 1494 1497 1501 1502 1506 1511 1512 1513 1515 1518 1519 1521 1523 1526 1527 1531 1532
1481 1491 1506 1528 1509 1490 1494 1482 1474 1480 1500 1497 1495 1497 1503 1496 1488 1483 1487 1489 1488 1486 1490 1489 1490 1491 1495 1497 1498 1500 1503 1506 1509 1510 1510 1512 1513 1515 1518 1522 1524 1525 1527 1528
1482 1501 1494 1492 1486 1484 1485 1483 1477 1482 1479 1491 1482 1485 1491 1489 1483 1479 1483 1485 1487 1489 1491 1493 1493 1493 1496 1498 1498 1500 1502 1503 1504 1505 1508 1510 1512 1513 1517 1518 1520 1521 1523 1525
1482 1502 1495 1501 1488 1486 1487 1478 1474 1470 1467 1472 1478 1487 1479 1481 1491 1496 1491 1489 1486 1492 1494 1495 1496 1496 1495 1499 1499 1500 1499 1501 1503 1505 1504 1506 1509 1511 1513 1516 1516 1518 1519 1520
1489 1495 1505 1515 1496 1495 1505 1484 1474 1471 1469 1472 1487 1485 1485 1496 1496 1501 1495 1497 1495 1496 1498 1499 1498 1497 1494 1496 1498 1500 1498 1498 1496 1500 1501 1501 1504 1505 1508 1510 1512 1513 1513 1516
1488 1491 1498 1513 1502 1530 1489 1473 1469 1474 1474 1473 1478 1483 1485 1492 1502 1503 1499 1500 1499 1499 1500 1501 1501 1501 1497 1496 1495 1498 1496 1496 1497 1497 1498 1499 1500 1500 1503 1505 1506 1507 1509 1511
1475 1486 1502 1516 1517 1501 1484 1479 1480 1484 1493 1483 1483 1486 1489 1491 1493 1499 1500 1499 1499 1500 1501 1503 1504 1502 1499 1497 1496 1495 1495 1495 1496 1496 1496 1496 1495 1495 1495 1498 1500 1503 1504 1506
1473 1478 1498 1504 1516 1523 1496 1479 1477 1476 1507 1492 1490 1492 1491 1490 1502 1500 1500 1501 1502 1504 1505 1504 1503 1501 1499 1497 1496 1495 1494 1493 1493 1493 1493 1493 1491 1489 1492 1492 1494 1495 1497 1498
1488 1491 1502 1505 1509 1496 1488 1484 1481 1501 1513 1495 1495 1496 1496 1498 1500 1501 1501 1502 1503 1504 1503 1503 1502 1500 1499 1497 1496 1495 1495 1493 1492 1491 1488 1484 1485 1486 1487 1489 1487 1489 1491 1492
1491 1498 1501 1498 1503 1509 1487 1486 1499 1500 1497 1497 1497 1500 1500 1500 1501 1501 1501 1501 1500 1500 1500 1499 1499 1498 1497 1496 1495 1494 1493 1491 1490 1488 1486 1484 1482 1482 1481 1478 1479 1477 1481 1485
1496 1489 1495 1495 1502 1490 1490 1491 1494 1495 1496 1498 1499 1500 1500 1500 1500 1500 1500 1499 1498 1498 1497 1496 1495 1494 1493 1493 1492 1491 1490 1489 1487 1485 1483 1482 1480 1478 1476 1475 1473 1472 1470 1479
1486 1483 1490 1491 1489 1489 1491 1493 1495 1496 1496 1497 1498 1498 1498 1498 1498 1498 1498 1497 1495 1495 1494 1493 1492 1491 1490 1489 1488 1487 1486 1484 1483 1481 1479 1478 1476 1474 1472 1470 1468 1466 1464 1447
1488 1487 1489 1491 1490 1490 1491 1494 1495 1496 1496 1496 1497 1497 1496 1496 1496 1495 1494 1493 1492 1491 1489 1488 1487 1486 1485 1484 1483 1483 1481 1480 1477 1475 1474 1472 1472 1471 1469 1466 1465 1462 1460 1455
1485 1490 1494 1497 1491 1492 1493 1493 1494 1495 1495 1495 1494 1494 1493 1492 1491 1490 1489 1489 1487 1485 1484 1482 1481 1480 1479 1478 1477 1477 1475 1474 1472 1469 1467 1466 1465 1466 1466 1462 1462 1460 1459 1457